[[{"header":{"parameterUnit":"m.s-1","parameterCategory":1,"la1":30.2991,"la2":30.254,"lo1":-89.0895,"lo2":-89.0444,"dy":0.0017,"dx":0.0017,"nx":28,"ny":28,"refTime":"2025-11-20T09:00:00:Z","depth":0,"parameterNumber":2,"parameterNumberName":"U-component_of_WINDS"},"data":[0,0,0,0,0,0,0,0,0,0,0,0,0,0,0,0,0,0,0,0,0,0,0,0,0,0,0,0,0,0,0,0,0,0,0,0,0,0,0,0,0,0,0,0,0,0,0,0,0,0,0,0,0,0,0,0,0,0,-2.6811,-2.6812,0,-2.6825,-2.6825,-2.6825,-2.6764,-2.6762,-2.676,-2.6758,-2.6772,-2.6774,-2.6776,0,0,0,0,0,0,0,0,0,0,0,0,0,-2.6735,-2.6737,-2.6811,-2.6812,-2.6812,-2.6825,-2.6825,-2.6825,-2.6764,-2.6762,-2.6759,-2.6757,-2.6772,-2.6774,-2.6777,0,0,0,0,0,0,0,0,0,0,0,0,0,-2.676,-2.6737,-2.6811,-2.6783,-2.678,-2.6825,-2.6825,-2.6825,-2.6764,-2.6762,-2.6759,-2.6756,-2.6771,-2.6774,-2.6777,-2.6849,0,0,-2.6786,-2.6788,0,0,0,0,0,0,0,0,-2.6759,-2.6763,-2.6787,-2.6785,-2.6782,-2.679,-2.6803,-2.6833,-2.6765,-2.677,-2.6758,-2.6755,-2.678,-2.6782,-2.6791,-2.685,-2.6851,-2.6786,-2.6788,-2.679,-2.6791,0,0,0,0,0,0,0,-2.6757,-2.6762,-2.6817,-2.6787,-2.6784,-2.677,-2.6771,-2.6808,-2.679,-2.677,-2.6765,-2.6768,-2.6779,-2.6788,-2.6791,-2.6851,-2.6786,-2.6789,-2.6791,-2.6792,-2.6972,-2.6975,0,0,0,0,0,0,-2.6759,-2.6761,-2.6816,-2.6817,-2.6764,-2.6774,-2.6774,-2.679,-2.679,-2.6787,-2.677,-2.6765,-2.6784,-2.6787,-2.6791,-2.6876,-2.679,-2.6792,-2.6794,-2.6969,-2.6973,-2.6976,0,0,0,0,0,0,-2.6758,-2.6765,-2.6816,-2.6788,-2.6793,-2.6778,-2.6796,-2.6792,-2.6801,-2.679,-2.6786,-2.6783,-2.6782,-2.6787,-2.6836,-2.6875,-2.6794,-2.6797,-2.6966,-2.697,-2.6974,-2.7046,0,0,0,0,0,0,-2.6756,-2.6764,-2.6791,-2.6789,-2.6795,-2.6859,-2.6798,-2.6794,-2.6806,-2.68,-2.6801,-2.6799,-2.678,-2.6831,-2.6839,-2.6878,-2.6799,-2.6962,-2.6968,-2.6973,-2.704,-2.7053,-2.7063,0,0,0,0,0,-2.6753,-2.6811,-2.6793,-2.68,-2.6828,-2.6862,-2.6865,-2.6843,-2.681,-2.6837,-2.683,-2.6799,-2.6871,-2.6837,-2.6845,-2.6886,-2.6959,-2.6966,-2.6972,-2.7035,-2.705,-2.7063,0,0,0,0,0,0,-2.6817,-2.681,-2.679,-2.6848,-2.6856,-2.6851,-2.6884,-2.686,-2.6877,-2.687,-2.6842,-2.6843,-2.6897,-2.6897,-2.6859,-2.6957,-2.6909,-2.6918,-2.6954,-2.6969,-2.698,-2.6978,-2.6802,0,0,0,0,0,-2.6838,-2.6866,-2.6858,-2.691,-2.6916,-2.69,-2.6914,-2.6896,-2.6903,-2.6906,-2.6903,-2.6912,-2.6936,-2.6953,-2.6975,-2.7041,-2.7041,-2.7074,-2.7085,-2.7095,-2.7101,-2.7137,-2.7151,-2.6998,-2.6998,-2.6997,0,0,-2.6881,-2.6881,-2.69,-2.6923,-2.6927,-2.6957,-2.6903,-2.6936,-2.6958,-2.6911,-2.6957,-2.6956,-2.6964,-2.7022,-2.7047,-2.7023,-2.7144,-2.7103,-2.7111,-2.7112,-2.7145,-2.716,-2.7173,-2.7002,-2.7001,-2.7001,0,0,-2.6974,-2.6977,-2.7021,-2.7027,-2.7035,-2.7024,-2.7035,-2.7035,-2.7032,-2.7078,-2.7044,-2.7071,-2.7114,-2.7121,-2.713,-2.723,-2.7202,-2.7239,-2.7298,-2.7333,-2.7345,-2.7355,-2.739,-2.7403,-2.7246,-2.7246,-2.7247,0,-2.7027,-2.707,-2.7047,-2.7083,-2.7095,-2.7056,-2.71,-2.7107,-2.7122,-2.7131,-2.7104,-2.7158,-2.7161,-2.722,-2.7245,-2.7255,-2.7266,-2.7237,-2.7345,-2.7355,-2.7365,-2.7398,-2.7411,-2.7251,-2.725,-2.725,-2.7249,0,-2.7134,-2.7164,-2.7199,-2.7215,-2.7231,-2.7271,-2.7255,-2.7275,-2.7257,-2.725,-2.7298,-2.7301,-2.7323,-2.7337,-2.7319,-2.7394,-2.7379,-2.735,-2.73,-2.7384,-2.7414,-2.7427,-2.7257,-2.7255,-2.7254,-2.7253,0,0,-2.7263,-2.7268,-2.7281,-2.7288,-2.7295,-2.7319,-2.7359,-2.7381,-2.7398,-2.7411,-2.7443,-2.7482,-2.7455,-2.7466,-2.745,-2.7481,-2.756,-2.7448,-2.7447,-2.7467,-2.7643,-2.7663,-2.7678,-2.7543,-2.7545,-2.7547,-2.7641,0,-2.7353,-2.742,-2.7403,-2.7469,-2.7498,-2.7463,-2.7498,-2.7507,-2.7503,-2.7527,-2.7522,-2.755,-2.7513,-2.7519,-2.7549,-2.7544,-2.7595,-2.7538,-2.7572,-2.7574,-2.7568,-2.7694,-2.7715,-2.7804,-2.7653,-2.7655,-2.7657,0,-2.7466,-2.7484,-2.7554,-2.7558,-2.7569,-2.7601,-2.762,-2.7644,-2.7655,-2.7649,-2.7663,-2.7642,-2.7682,-2.7636,-2.7691,-2.7653,-2.7667,-2.7668,-2.7671,-2.7671,-2.7618,-2.7696,-2.7831,-2.7844,-2.7676,-2.7674,-2.7673,0,-2.7552,-2.7594,-2.7641,-2.7649,-2.7655,-2.7678,-2.7682,-2.7689,-2.7705,-2.7723,-2.7732,-2.7755,-2.7767,-2.7786,-2.7772,-2.774,-2.783,-2.7782,-2.7826,-2.7826,-2.7843,-2.7842,-2.7981,-2.7857,-2.7857,-2.7857,-2.7856,0,-2.7653,-2.7697,-2.768,-2.7708,-2.7757,-2.7738,-2.7787,-2.7787,-2.7795,-2.7824,-2.7796,-2.7824,-2.7805,-2.7832,-2.7822,-2.7869,-2.7875,-2.7872,-2.7868,-2.7873,-2.7873,-2.7879,-2.7871,-2.786,-2.7859,-2.7859,-2.7858,0,-2.7755,-2.7746,-2.7795,-2.7798,-2.78,-2.7836,-2.7838,-2.7866,-2.7861,-2.7898,-2.7906,-2.7898,-2.7928,-2.7917,-2.7949,-2.7943,-2.8003,-2.7992,-2.7999,-2.7995,-2.8039,-2.8034,-2.8185,-2.8203,-2.8069,-2.8071,-2.8072,0,-2.7819,-2.7852,-2.7859,-2.7877,-2.7883,-2.7911,-2.7927,-2.7911,-2.7928,-2.7944,-2.797,-2.7998,-2.8019,-2.8069,-2.8067,-2.8092,-2.808,-2.8132,-2.8084,-2.8088,-2.8079,-2.8076,-2.8079,-2.814,-2.8142,-2.8143,-2.8144,0,-2.7932,-2.7927,-2.795,-2.7973,-2.7993,-2.801,-2.8025,-2.8041,-2.8026,-2.8048,-2.8078,-2.8095,-2.8129,-2.8157,-2.818,-2.8185,-2.8162,-2.816,-2.8171,-2.8174,-2.8176,-2.8174,-2.8022,-2.8155,-2.8154,-2.8153,-2.8153,-2.8152,-2.8015,-2.8043,-2.8053,-2.8081,-2.8091,-2.8106,-2.8132,-2.8132,-2.8157,-2.8183,-2.8173,-2.8209,-2.822,-2.8249,-2.8258,-2.8286,-2.8265,-2.8282,-2.8286,-2.8289,-2.8294,-2.8175,-2.829,-2.829,-2.8289,-2.8289,-2.8289,0,-2.8126,-2.8131,-2.8158,-2.818,-2.8202,-2.8181,-2.8197,-2.8217,-2.8248,-2.8262,-2.8284,-2.832,-2.8348,-2.8349,-2.8376,-2.8398,-2.8388,-2.8405,-2.8402,-2.8404,-2.8311,-2.8298,-2.8413,-2.8413,-2.8413,-2.8413,-2.8413,-2.8413,-2.8186,-2.8232,-2.8228,-2.828,-2.8285,-2.832,-2.8331,-2.8345,-2.8356,-2.8397,-2.8421,-2.8422,-2.8431,-2.8458,-2.8483,-2.8483,-2.8493,-2.8514,-2.8509,-2.8422,-2.841,-2.8398,-2.8385,-2.8517,-2.8517,-2.8599,-2.86,-2.86]},{"header":{"parameterUnit":"m.s-1","parameterCategory":1,"la1":30.2991,"la2":30.254,"lo1":-89.0895,"lo2":-89.0444,"dy":0.0017,"dx":0.0017,"nx":28,"ny":28,"refTime":"2025-11-20T09:00:00:Z","depth":0,"parameterNumber":3,"parameterNumberName":"V-component_of_WINDS"},"data":[0,0,0,0,0,0,0,0,0,0,0,0,0,0,0,0,0,0,0,0,0,0,0,0,0,0,0,0,0,0,0,0,0,0,0,0,0,0,0,0,0,0,0,0,0,0,0,0,0,0,0,0,0,0,0,0,0,0,0.6844,0.6844,0,0.6903,0.6903,0.6904,0.6972,0.6973,0.6974,0.6975,0.7033,0.7033,0.7034,0,0,0,0,0,0,0,0,0,0,0,0,0,0.6789,0.679,0.6844,0.6844,0.6845,0.6902,0.6903,0.6904,0.6972,0.6973,0.6974,0.6975,0.7033,0.7033,0.7034,0,0,0,0,0,0,0,0,0,0,0,0,0,0.6827,0.679,0.6844,0.6886,0.689,0.6902,0.6903,0.6904,0.6971,0.6973,0.6975,0.6976,0.7032,0.7033,0.7034,0.7009,0,0,0.7037,0.7037,0,0,0,0,0,0,0,0,0.6825,0.6829,0.6879,0.6883,0.6888,0.6932,0.6905,0.6939,0.6971,0.694,0.6975,0.6977,0.6998,0.7002,0.7009,0.7011,0.7014,0.7037,0.7037,0.7038,0.7038,0,0,0,0,0,0,0,0.6822,0.6827,0.6867,0.688,0.6885,0.6902,0.6909,0.6912,0.696,0.6943,0.6948,0.6955,0.7,0.7008,0.7011,0.7015,0.7037,0.7038,0.7038,0.7038,0.7002,0.7,0,0,0,0,0,0,0.6813,0.6824,0.6865,0.6869,0.686,0.6901,0.6909,0.6916,0.696,0.6968,0.6953,0.6957,0.7006,0.701,0.7013,0.6989,0.7038,0.7039,0.7039,0.7003,0.7001,0.7,0,0,0,0,0,0,0.6812,0.6816,0.6863,0.6848,0.6855,0.6901,0.6908,0.6916,0.6924,0.6967,0.6976,0.6952,0.7007,0.7012,0.701,0.6991,0.7039,0.704,0.7005,0.7003,0.7001,0.6937,0,0,0,0,0,0,0.681,0.6815,0.6806,0.6847,0.6856,0.6858,0.6906,0.6916,0.6926,0.6932,0.6969,0.6976,0.7009,0.7008,0.7011,0.6993,0.704,0.7007,0.7004,0.7001,0.6941,0.6933,0.6926,0,0,0,0,0,0.6808,0.6785,0.6805,0.681,0.6845,0.6857,0.6862,0.69,0.6924,0.6915,0.6943,0.6975,0.6993,0.7008,0.7011,0.6993,0.7008,0.7005,0.7002,0.6945,0.6935,0.6926,0,0,0,0,0,0,0.6739,0.6791,0.6814,0.6804,0.6826,0.6869,0.6859,0.6888,0.6903,0.6909,0.6955,0.6963,0.6956,0.6974,0.699,0.6973,0.7005,0.7002,0.6961,0.6952,0.6944,0.6941,0.7041,0,0,0,0,0,0.6723,0.6729,0.6774,0.676,0.677,0.6812,0.6819,0.6847,0.6871,0.6881,0.6909,0.693,0.6942,0.6947,0.6959,0.6944,0.6954,0.6934,0.6926,0.692,0.6917,0.6913,0.6905,0.6989,0.6989,0.6989,0,0,0.6689,0.6718,0.6719,0.6747,0.6767,0.6773,0.682,0.6823,0.6828,0.6881,0.6882,0.6903,0.693,0.6922,0.692,0.6938,0.6896,0.6915,0.691,0.6911,0.6908,0.6901,0.6893,0.6986,0.6987,0.6987,0,0,0.6631,0.6653,0.6645,0.6665,0.6696,0.6725,0.6723,0.6762,0.6778,0.678,0.6821,0.6827,0.6844,0.6863,0.6874,0.6825,0.6856,0.6828,0.6789,0.6784,0.6778,0.6772,0.6757,0.675,0.6825,0.6825,0.6825,0,0.6585,0.6595,0.6637,0.6639,0.6651,0.6701,0.6694,0.6711,0.6743,0.6751,0.677,0.6794,0.6816,0.6814,0.6803,0.681,0.681,0.6824,0.6775,0.677,0.6765,0.6751,0.6745,0.6821,0.6822,0.6822,0.6822,0,0.6539,0.6545,0.6535,0.6567,0.6578,0.6575,0.6617,0.6623,0.665,0.6677,0.6679,0.6707,0.6727,0.6728,0.6754,0.673,0.6741,0.6767,0.6801,0.6753,0.6741,0.6736,0.6816,0.6818,0.6819,0.6819,0,0,0.6438,0.6495,0.6491,0.6508,0.6546,0.6552,0.6551,0.6572,0.6577,0.6598,0.66,0.6614,0.6639,0.6653,0.6681,0.6676,0.6639,0.6704,0.6705,0.6692,0.6617,0.6599,0.6592,0.6659,0.6658,0.6657,0.6616,0,0.6389,0.6393,0.6432,0.6424,0.6432,0.648,0.648,0.6504,0.6529,0.6539,0.6567,0.6577,0.6608,0.6617,0.6615,0.6644,0.6625,0.6647,0.6662,0.6662,0.6655,0.6585,0.6565,0.6524,0.6611,0.661,0.6609,0,0.6331,0.6351,0.6345,0.6386,0.639,0.639,0.6413,0.6422,0.645,0.6469,0.6484,0.6517,0.6521,0.6552,0.6558,0.6572,0.6581,0.6596,0.6596,0.66,0.6634,0.6589,0.6512,0.6506,0.6602,0.6602,0.6603,0,0.6261,0.6286,0.6286,0.6298,0.6345,0.6344,0.6363,0.6393,0.6404,0.6424,0.6432,0.6451,0.6462,0.6477,0.6514,0.6533,0.6517,0.655,0.6533,0.6532,0.6528,0.6528,0.6454,0.6531,0.6531,0.6531,0.6531,0,0.6203,0.6198,0.6256,0.6256,0.6253,0.6297,0.6292,0.6316,0.6343,0.6349,0.6391,0.6395,0.6444,0.6455,0.6484,0.6486,0.6489,0.6505,0.6514,0.6503,0.6501,0.651,0.6514,0.6529,0.653,0.653,0.653,0,0.6125,0.6163,0.6168,0.6212,0.6223,0.6219,0.6257,0.6259,0.6288,0.6295,0.6299,0.6343,0.6358,0.6397,0.6421,0.6441,0.6435,0.6449,0.6426,0.6432,0.6413,0.6415,0.6343,0.6336,0.6415,0.6414,0.6414,0,0.6086,0.6083,0.6128,0.6136,0.6154,0.6165,0.6177,0.6221,0.6232,0.6265,0.6263,0.6282,0.6299,0.632,0.6355,0.6374,0.639,0.6363,0.6393,0.6383,0.6392,0.6392,0.6393,0.6357,0.6356,0.6355,0.6354,0,0.6013,0.6033,0.6048,0.6071,0.6084,0.6104,0.6126,0.613,0.6179,0.6189,0.6205,0.6219,0.6245,0.6263,0.6288,0.6308,0.634,0.6344,0.6342,0.6332,0.6319,0.6328,0.641,0.6346,0.6347,0.6348,0.6348,0.6348,0.5955,0.5956,0.5988,0.6005,0.6026,0.6047,0.6052,0.6081,0.6096,0.6122,0.6146,0.616,0.619,0.6228,0.6246,0.6258,0.6274,0.627,0.6269,0.6268,0.6264,0.6316,0.6262,0.6262,0.6263,0.6263,0.6263,0,0.5886,0.591,0.5924,0.5955,0.5968,0.5997,0.6024,0.6033,0.6045,0.6071,0.6088,0.6107,0.6126,0.6162,0.6184,0.6187,0.6202,0.6191,0.6192,0.6197,0.6247,0.6248,0.6178,0.6178,0.6179,0.6179,0.6179,0.6179,0.5852,0.5856,0.588,0.5896,0.5919,0.5935,0.5947,0.5967,0.5988,0.6008,0.6024,0.6048,0.6078,0.6103,0.6121,0.6132,0.6139,0.6123,0.6138,0.6185,0.6193,0.62,0.6202,0.6124,0.6124,0.6088,0.6087,0.6087]}]]